This is the latest recevied weather packets stored in our database for station/object KJ6APE. If no packets are shown the sender has not sent any weather packets the latest 1 day(s).
| Time | Temp. | Humidity | Pressure | Rain* | Wind** | Luminosity | Snow |
|---|---|---|---|---|---|---|---|
| 1778046668 | 13.33° C | 78% | 1018.1 hPa | 0 mm | 0 m/s | 0 W/m² | - |
| 1778046365 | 13.33° C | 78% | 1018.6 hPa | 0 mm | 0.45 m/s, 96° | 0 W/m² | - |
| 1778046060 | 13.89° C | 78% | 1018.4 hPa | 0 mm | 0.45 m/s, 188° | 0 W/m² | - |
| 1778045759 | 13.89° C | 77% | 1018.3 hPa | 0 mm | 0 m/s | 0 W/m² | - |
| 1778045457 | 13.89° C | 77% | 1018.2 hPa | 0 mm | 0 m/s | 0 W/m² | - |
| 1778045155 | 13.89° C | 77% | 1018.2 hPa | 0 mm | 0.45 m/s, 80° | 0 W/m² | - |
| 1778044853 | 13.89° C | 76% | 1018 hPa | 0 mm | 0.45 m/s, 74° | 0 W/m² | - |
| 1778044549 | 13.89° C | 76% | 1018.1 hPa | 0 mm | 0.89 m/s, 145° | 0 W/m² | - |
| 1778044246 | 13.89° C | 76% | 1018 hPa | 0 mm | 0.45 m/s, 96° | 0 W/m² | - |
| 1778043944 | 13.89° C | 75% | 1017.9 hPa | 0 mm | 0.45 m/s, 115° | 0 W/m² | - |
| 1778043641 | 13.89° C | 75% | 1018.1 hPa | 0 mm | 0.45 m/s, 99° | 0 W/m² | - |
| 1778043337 | 13.89° C | 75% | 1018 hPa | 0 mm | 0 m/s | 0 W/m² | - |
| 1778043034 | 14.44° C | 75% | 1017.8 hPa | 0 mm | 0.89 m/s, 120° | 0 W/m² | - |
| 1778042732 | 14.44° C | 75% | 1018 hPa | 0 mm | 0.89 m/s, 131° | 0 W/m² | - |
| 1778042429 | 14.44° C | 75% | 1017.9 hPa | 0 mm | 0.45 m/s, 102° | 0 W/m² | - |
| 1778042126 | 14.44° C | 75% | 1017.8 hPa | 0 mm | 0 m/s | 0 W/m² | - |
| 1778041824 | 14.44° C | 74% | 1017.7 hPa | 0 mm | 0 m/s | 0 W/m² | - |
| 1778041523 | 14.44° C | 73% | 1017.6 hPa | 0 mm | 1.34 m/s, 142° | 0 W/m² | - |
| 1778041221 | 14.44° C | 73% | 1017.8 hPa | 0 mm | 0.45 m/s, 85° | 0 W/m² | - |
| 1778040919 | 14.44° C | 74% | 1017.4 hPa | 0 mm | 0.89 m/s, 341° | 0 W/m² | - |
| 1778040615 | 14.44° C | 74% | 1017.4 hPa | 0 mm | 0 m/s | 0 W/m² | - |
| 1778040313 | 14.44° C | 74% | 1017.2 hPa | 0 mm | 0.45 m/s, 105° | 0 W/m² | - |
| 1778040009 | 15° C | 75% | 1017.3 hPa | 0 mm | 0 m/s | 0 W/m² | - |
| 1778039706 | 15° C | 75% | 1017.2 hPa | 0 mm | 0 m/s | 0 W/m² | - |
| 1778039403 | 15° C | 74% | 1017.2 hPa | 0 mm | 0.89 m/s, 329° | 0 W/m² | - |
* Rain latest hour (hover to see other rain measurements)
** Current wind speed in m/s (hover to see current wind gust speed)